TimePST,TemperatureF,Dew PointF,Humidity,Sea Level PressureIn,VisibilityMPH,Wind Direction,Wind SpeedMPH,Gust SpeedMPH,PrecipitationIn,Events,Conditions,WindDirDegrees,DateUTC
12:53 AM,44.1,39.9,85,30.06,9.0,Calm,Calm,-,N/A,,Clear,0,2013-03-05 08:53:00
1:53 AM,43.0,39.0,86,30.05,9.0,Calm,Calm,-,N/A,,Clear,0,2013-03-05 09:53:00
2:53 AM,44.1,42.1,93,30.03,7.0,SSE,3.5,-,N/A,,Clear,160,2013-03-05 10:53:00
5:53 AM,43.0,41.0,93,30.04,5.0,Calm,Calm,-,N/A,,Clear,0,2013-03-05 13:53:00
6:53 AM,42.1,39.9,92,30.05,2.5,Calm,Calm,-,N/A,,Clear,0,2013-03-05 14:53:00
7:12 AM,44.6,42.8,93,30.05,3.0,Calm,Calm,-,N/A,,Clear,0,2013-03-05 15:12:00
7:53 AM,48.9,44.1,83,30.07,6.0,East,3.5,-,N/A,,Haze,80,2013-03-05 15:53:00
8:53 AM,54.0,46.0,75,30.07,8.0,SE,5.8,-,N/A,,Clear,130,2013-03-05 16:53:00
9:53 AM,59.0,45.0,60,30.06,9.0,South,3.5,-,N/A,,Clear,190,2013-03-05 17:53:00
10:53 AM,63.0,46.0,54,30.04,10.0,South,4.6,-,N/A,,Clear,180,2013-03-05 18:53:00
11:53 AM,66.0,45.0,47,30.02,10.0,Variable,5.8,-,N/A,,Clear,0,2013-03-05 19:53:00
12:53 PM,69.1,45.0,42,29.99,10.0,SW,8.1,-,N/A,,Clear,230,2013-03-05 20:53:00
1:53 PM,71.1,43.0,36,29.96,10.0,SW,8.1,-,N/A,,Clear,220,2013-03-05 21:53:00
2:53 PM,72.0,44.1,37,29.93,10.0,SSW,9.2,-,N/A,,Clear,200,2013-03-05 22:53:00
3:53 PM,71.1,39.9,32,29.91,10.0,SW,13.8,-,N/A,,Clear,220,2013-03-05 23:53:00
4:53 PM,69.1,35.1,29,29.91,10.0,SW,11.5,-,N/A,,Clear,220,2013-03-06 00:53:00
5:53 PM,64.0,35.1,34,29.92,10.0,SSW,6.9,-,N/A,,Clear,210,2013-03-06 01:53:00
6:53 PM,60.1,30.9,33,29.94,10.0,Calm,Calm,-,N/A,,Clear,0,2013-03-06 02:53:00
7:53 PM,57.9,32.0,37,29.95,10.0,SW,8.1,-,N/A,,Scattered Clouds,230,2013-03-06 03:53:00
8:53 PM,55.9,33.1,42,29.96,10.0,SW,8.1,-,N/A,,Overcast,220,2013-03-06 04:53:00
9:53 PM,48.0,39.0,71,30.00,10.0,ESE,6.9,-,N/A,,Partly Cloudy,120,2013-03-06 05:53:00
10:53 PM,46.9,37.9,71,30.01,10.0,East,4.6,-,N/A,,Scattered Clouds,100,2013-03-06 06:53:00
11:53 PM,48.0,37.9,68,30.02,10.0,SE,3.5,-,N/A,,Mostly Cloudy,130,2013-03-06 07:53:00